This is the latest recevied weather packets stored in our database for station/object YD2CLX-15. If no packets are shown the sender has not sent any weather packets the latest 1 day(s).
| Time | Temp. | Humidity | Pressure | Rain* | Wind** | Luminosity | Snow |
|---|---|---|---|---|---|---|---|
| 1778093135 | 19.44° C | 95% | 1011 hPa | 0 mm | - | - | - |
| 1778083235 | 20° C | 95% | 1012 hPa | 0 mm | - | - | - |
| 1778081435 | 20° C | 95% | 1012 hPa | 0 mm | - | - | - |
| 1778080535 | 20° C | 94% | 1012 hPa | 0 mm | - | - | - |
| 1778078735 | 20.56° C | 95% | 1012 hPa | 0 mm | - | - | - |
| 1778075135 | 20.56° C | 94% | 1012 hPa | 0 mm | - | - | - |
| 1778070654 | 20.56° C | 95% | 1011 hPa | 0 mm | - | - | - |
| 1778064352 | 18.33° C | 90% | 1010 hPa | 0 mm | - | - | - |
| 1778063455 | 19.44° C | 90% | 1010 hPa | 0 mm | - | - | - |
| 1778062552 | 20.56° C | 90% | 1009 hPa | 0 mm | - | - | - |
| 1778060752 | 15.56° C | 92% | 1009 hPa | 0 mm | - | - | - |
| 1778059855 | 16.67° C | 92% | 1009 hPa | 0 mm | - | - | - |
| 1778058952 | 17.78° C | 92% | 1008 hPa | 0 mm | - | - | - |
| 1778057152 | 20° C | 92% | 1008 hPa | 0 mm | - | - | - |
| 1778055352 | 17.78° C | 100% | 1008 hPa | 0 mm | - | - | - |
| 1778054470 | 18.89° C | 100% | 1008 hPa | 0 mm | - | - | - |
| 1778054456 | 18.89° C | 100% | 1008 hPa | 0 mm | - | - | - |
| 1778053552 | 20° C | 100% | 1008 hPa | 0 mm | - | - | - |
| 1778051752 | 22.22° C | 100% | 1008 hPa | 0 mm | - | - | - |
| 1778050861 | 23.33° C | 100% | 1008 hPa | 0 mm | - | - | - |
| 1778049952 | 19.44° C | 100% | 1008 hPa | 0 mm | - | - | - |
| 1778049054 | 20.56° C | 100% | 1008 hPa | 0 mm | - | - | - |
| 1778048152 | 21.67° C | 100% | 1009 hPa | 0 mm | - | - | - |
| 1778047259 | 22.78° C | 100% | 1009 hPa | 0 mm | - | - | - |
| 1778045453 | 25° C | 100% | 1009 hPa | 0 mm | - | - | - |
* Rain latest hour (hover to see other rain measurements)
** Current wind speed in m/s (hover to see current wind gust speed)